Temp
85 87 87 79 74 86 75 77 71 77 80 88 90 89 89 88 86 87 88 88 86 87 87 85 85 85 85 82 82 82 82 81
83 86 85 82 88 74 77 63 61 72 72 78 82 86 89 82 84 84 85 85 86 86 85 86 86 86 86 85 82 83 83 83
82 79 79 79 78 80 81 76 68 66 73 87 85 89 88 85 85 83 84 85 86 87 88 88 87 85 86 85 83 83 83 83
78 86 87 85 81 81 73 69 76 73 75 92 90 89 87 87 86 84 85 86 87 87 87 86 83 84 86 86 85 84 83 82
72 80 82 79 83 83 81 77 72 70 76 90 90 87 85 87 84 82 83 84 85 84 83 81 81 84 87 87 86 85 84 83
72 73 82 76 80 82 80 73 75 77 78 85 88 87 85 86 82 81 82 82 84 83 82 80 76 85 87 87 88 86 85 84
80 80 80 81 80 80 77 79 74 80 79 85 87 84 85 86 82 80 80 82 83 83 81 81 83 86 86 87 87 86 84 84
75 79 79 77 81 81 81 82 80 82 80 88 86 85 83 83 81 80 80 82 83 84 83 84 85 86 86 85 85 85 84 84
69 77 76 71 79 81 82 84 83 78 83 85 83 80 80 81 83 82 82 82 80 83 83 84 85 86 85 85 85 84 83 84
71 73 60 78 84 84 82 84 86 84 84 82 80 79 79 82 84 83 82 81 80 83 83 82 83 83 83 84 83 83 82 83
66 67 74 77 79 80 79 79 85 83 83 83 81 81 72 74 83 82 82 82 80 80 78 78 77 76 77 76 77 79 80 77
69 62 60 76 79 79 79 73 85 82 82 84 82 80 78 65 69 69 68 68 67 69 71 71 70 75 74 69 70 67 67 70
66 63 72 79 78 80 67 72 79 80 81 81 80 72 65 66 65 66 67 67 70 71 71 68 70 73 71 68 66 66 68 68
68 64 60 79 77 72 73 77 76 76 76 73 69 62 62 63 63 66 69 70 72 70 67 65 67 67 64 61 62 64 62 59
72 72 73 76 75 74 72 70 73 71 74 71 68 64 61 60 63 69 70 67 67 65 60 61 63 64 58 57 60 60 59 56
68 74 74 74 76 76 76 71 69 70 72 74 72 70 65 63 64 61 61 64 65 65 60 58 61 61 59 58 59 58 56 55
71 72 74 75 75 74 73 70 68 69 70 70 70 68 66 64 65 64 64 65 66 63 59 57 59 59 59 59 60 56 55 53
69 70 71 71 73 74 73 73 70 71 71 72 73 71 73 71 70 69 66 63 62 61 60 60 60 59 59 60 60 60 58 58
69 72 72 73 73 74 73 74 73 73 73 72 73 74 73 70 67 61 64 64 63 63 63 62 63 61 62 64 62 59 62 61
MSLP
1004.53 1004.38 1004.38 1004.08 1004.12 1003.45 1003.00 1003.00 1002.79 1001.93 1001.73 1001.63 1001.95 1002.38 1002.97 1003.93 1004.96 1005.61 1006.39 1007.26 1008.14 1008.82 1009.72 1010.49 1011.09 1011.77 1012.29 1012.92 1013.25 1013.54 1013.83 1014.31
1004.27 1004.45 1004.49 1004.24 1003.47 1003.55 1003.14 1002.24 1001.98 1001.24 1001.57 1000.93 1001.47 1001.63 1002.45 1004.24 1004.99 1006.03 1006.81 1007.56 1008.10 1008.82 1009.63 1010.10 1010.66 1011.25 1011.82 1012.30 1012.96 1013.47 1013.96 1014.20
1004.14 1003.62 1003.02 1004.02 1003.47 1003.20 1002.51 1002.41 1001.44 1000.82 1000.21 1000.87 1001.39 1001.65 1002.42 1003.99 1005.03 1006.29 1006.84 1007.42 1008.11 1008.74 1009.37 1009.93 1010.59 1011.20 1011.45 1012.23 1012.94 1013.52 1013.82 1014.27
1002.97 1002.98 1003.31 1003.01 1002.68 1002.65 1002.33 1002.37 1002.10 1001.71 1000.55 1000.70 1001.33 1001.96 1002.94 1003.91 1005.12 1006.45 1007.07 1007.62 1008.21 1008.84 1009.61 1010.25 1010.96 1011.24 1011.58 1012.02 1012.70 1013.27 1013.80 1014.20
1003.04 1003.24 1003.45 1002.99 1002.78 1002.99 1002.87 1003.00 1001.82 1001.25 1000.27 1000.89 1001.43 1002.10 1003.18 1003.90 1005.52 1006.71 1007.38 1007.95 1008.51 1009.30 1010.09 1010.73 1011.07 1011.45 1011.55 1011.97 1012.47 1012.99 1013.70 1014.04
1001.88 1002.08 1001.48 1002.17 1002.20 1002.40 1002.49 1002.01 1000.99 1000.83 1000.61 1000.76 1001.15 1001.86 1003.13 1004.07 1005.75 1006.77 1007.52 1008.15 1008.76 1009.55 1010.27 1011.05 1011.23 1011.43 1011.68 1011.72 1012.20 1013.02 1013.47 1013.84
1002.86 1002.56 1002.34 1001.89 1001.59 1001.91 1002.08 1001.79 1001.27 1000.36 1000.77 1000.84 1001.53 1002.75 1003.34 1004.44 1006.13 1007.02 1007.48 1007.93 1008.50 1009.19 1010.13 1010.86 1011.16 1011.07 1011.41 1011.71 1012.37 1012.99 1013.37 1013.65
1003.03 1002.69 1002.43 1002.01 1001.71 1001.54 1001.56 1001.39 1001.53 1001.20 1001.17 1001.93 1002.77 1003.44 1003.92 1004.59 1005.78 1006.56 1007.41 1007.78 1008.23 1008.92 1009.71 1010.01 1010.52 1010.83 1011.28 1011.83 1012.32 1012.85 1013.12 1013.51
1002.94 1002.75 1002.50 1001.96 1001.41 1001.18 1001.22 1001.42 1001.47 1001.01 1001.41 1002.35 1003.14 1004.17 1004.83 1005.15 1005.69 1006.35 1006.90 1007.72 1008.40 1008.80 1009.49 1010.03 1010.29 1010.86 1011.32 1011.88 1012.43 1012.94 1013.33 1013.66
1003.46 1003.11 1002.37 1001.46 1002.02 1001.88 1001.54 1001.50 1001.56 1001.88 1002.41 1003.43 1004.28 1005.30 1006.05 1006.17 1006.08 1006.69 1007.29 1007.90 1008.78 1009.20 1009.90 1010.67 1011.15 1011.46 1011.78 1012.20 1012.65 1012.91 1013.32 1013.60
1004.12 1003.14 1002.48 1002.14 1002.62 1002.55 1002.23 1001.85 1002.27 1002.64 1003.22 1003.95 1004.95 1005.84 1007.33 1007.97 1007.34 1007.67 1008.13 1008.75 1009.56 1010.15 1010.93 1011.62 1012.19 1012.58 1012.65 1012.99 1013.41 1013.44 1013.52 1013.93
1004.35 1003.45 1002.36 1002.22 1003.35 1004.09 1004.07 1002.87 1002.94 1003.73 1003.88 1004.36 1005.45 1005.90 1007.54 1009.67 1009.86 1010.13 1010.75 1011.17 1011.43 1011.73 1012.06 1012.66 1012.93 1012.97 1013.20 1013.74 1014.03 1014.61 1014.88 1015.02
1004.68 1003.94 1003.13 1003.50 1004.39 1004.84 1004.69 1004.62 1004.79 1005.02 1005.27 1005.75 1006.53 1008.50 1009.92 1010.80 1011.40 1011.65 1011.85 1012.04 1012.21 1012.24 1012.55 1013.20 1013.53 1013.33 1014.04 1014.48 1014.82 1015.30 1015.46 1015.59
1004.71 1004.13 1004.15 1004.51 1005.13 1005.34 1006.16 1006.06 1006.37 1006.68 1006.95 1007.48 1008.84 1010.22 1011.10 1011.78 1012.39 1012.43 1012.22 1012.49 1012.65 1012.97 1013.73 1014.46 1014.61 1014.51 1014.12 1015.35 1015.95 1016.01 1016.45 1016.59
1004.44 1004.34 1005.30 1005.86 1005.97 1006.80 1007.43 1007.62 1007.82 1008.20 1008.35 1008.96 1009.53 1010.70 1011.73 1012.28 1012.68 1012.56 1012.58 1013.10 1013.48 1014.10 1014.79 1015.23 1015.45 1015.37 1015.30 1015.53 1016.42 1016.60 1016.98 1017.36
1005.69 1005.54 1005.84 1006.42 1006.98 1007.43 1007.80 1008.35 1008.96 1009.31 1009.46 1009.47 1009.85 1010.75 1011.74 1012.52 1012.91 1013.52 1013.91 1014.04 1014.28 1014.66 1015.32 1015.81 1016.12 1016.42 1016.53 1016.29 1017.01 1017.29 1017.52 1018.00
1005.99 1006.39 1006.64 1006.92 1007.49 1007.93 1008.44 1009.08 1009.35 1009.65 1009.90 1010.13 1010.53 1011.10 1011.74 1012.50 1013.10 1013.67 1014.09 1014.38 1014.61 1015.19 1015.91 1016.50 1016.79 1017.15 1017.17 1017.05 1017.26 1017.57 1017.96 1018.55
1006.20 1007.69 1007.53 1007.91 1008.28 1008.62 1008.70 1008.95 1009.67 1009.75 1009.99 1010.33 1010.53 1011.04 1011.47 1012.12 1012.98 1013.51 1014.19 1014.79 1015.16 1015.71 1016.27 1016.73 1016.99 1017.32 1017.43 1017.44 1017.59 1017.74 1018.10 1018.65
1008.36 1008.76 1008.58 1008.67 1008.86 1008.99 1008.99 1009.20 1009.65 1009.80 1010.03 1010.34 1010.76 1011.13 1011.71 1012.57 1013.38 1014.13 1014.61 1014.95 1015.34 1015.72 1016.16 1016.68 1016.94 1017.27 1017.40 1017.45 1017.72 1017.95 1017.93 1018.57
Wind_Speed
5 4 14 8 10 14 11 8 9 8 4 11 6 9 6 1 5 7 9 8 8 7 8 9 10 10 11 10 11 8 9 7
7 6 5 9 3 9 10 12 9 6 5 5 1 4 5 5 6 9 8 9 9 9 9 10 10 10 10 10 9 8 7 6
7 11 10 8 10 9 8 5 9 6 7 7 1 4 4 7 10 11 11 10 10 10 11 11 11 10 12 11 9 8 7 6
11 7 4 5 8 9 9 12 8 9 10 5 1 3 0 9 12 12 10 10 11 11 11 11 9 10 10 11 10 8 7 6
9 9 8 11 12 11 9 7 10 9 4 4 2 4 4 10 14 11 12 12 12 11 10 10 10 9 10 10 10 9 8 7
9 9 2 14 14 13 14 11 11 10 8 6 3 4 8 9 16 14 12 12 13 12 12 11 7 9 10 9 9 8 7 7
9 6 7 10 7 12 15 18 6 7 2 4 6 7 7 9 14 14 13 14 15 14 13 12 12 11 10 8 8 7 6 6
10 5 6 9 11 10 14 12 9 11 9 9 4 4 4 8 16 17 14 15 16 15 13 12 11 10 9 8 7 7 6 6
12 5 7 11 12 11 14 12 12 14 3 6 4 6 3 6 12 14 15 14 14 14 12 10 10 7 8 7 7 7 6 7
10 5 14 3 3 6 9 8 8 8 2 5 4 5 5 2 9 10 12 15 13 11 10 8 7 8 7 5 6 7 8 8
10 12 13 6 5 6 8 12 7 6 2 1 2 6 6 5 2 7 9 11 10 9 10 8 7 6 7 6 3 4 5 2
7 15 17 12 9 2 3 11 9 3 4 4 4 9 7 7 6 9 9 9 10 11 10 9 7 7 8 7 6 5 4 5
12 12 9 8 4 4 10 1 4 5 5 5 5 8 6 8 7 8 9 11 10 9 9 8 7 8 7 6 6 5 4 4
13 14 15 6 6 8 6 2 6 5 7 5 6 7 7 7 6 8 10 10 8 8 7 5 4 6 11 8 5 6 5 6
7 7 6 2 3 4 4 4 6 5 5 5 7 5 5 5 5 5 7 8 7 7 7 5 4 5 7 8 5 6 7 7
3 7 3 3 2 1 2 2 3 2 2 2 3 6 5 6 4 8 6 6 6 6 6 6 5 6 6 8 6 7 8 8
6 4 3 3 3 4 4 4 3 3 3 3 2 5 8 7 5 5 5 5 6 6 6 6 6 6 5 7 7 9 9 8
3 8 6 7 5 3 2 4 5 4 5 3 6 6 7 6 5 5 6 6 7 8 9 7 7 7 6 7 8 9 10 7
6 9 6 4 3 4 2 2 4 4 4 5 4 6 5 6 5 7 8 9 8 8 9 8 8 9 7 8 8 8 9 10
Wind_Direction
198 218 223 177 230 250 269 243 272 267 212 258 235 258 247 145 108 147 157 155 170 162 159 155 163 162 140 138 125 117 106 114
125 177 193 263 170 202 227 263 260 189 257 292 360 256 147 124 147 133 151 163 173 157 159 148 144 134 124 119 122 124 124 117
196 204 172 183 216 240 300 313 296 245 211 115 318 330 347 140 152 151 149 156 155 157 153 143 136 142 135 130 138 146 133 133
240 113 284 275 275 226 241 197 236 297 297 138 246 325 134 153 151 154 147 144 154 147 146 139 135 151 144 142 152 151 144 148
206 186 195 230 216 230 245 291 273 280 271 122 241 249 144 161 146 155 150 145 146 144 153 146 156 172 151 155 152 150 153 155
282 1 163 197 227 215 223 244 239 231 295 294 236 273 148 181 154 158 159 157 152 155 156 157 160 174 163 144 138 152 164 168
257 268 256 275 216 203 217 237 270 304 216 300 36 17 340 173 152 160 156 169 168 162 160 163 189 166 151 139 149 151 166 169
254 204 236 239 240 233 206 239 264 272 271 53 43 45 31 166 170 173 171 172 171 167 173 173 170 169 150 151 156 166 169 182
249 174 230 238 244 236 237 240 251 256 260 28 7 27 42 186 187 188 175 176 177 171 169 172 161 161 163 162 167 185 191 198
259 186 234 263 28 294 271 253 249 268 2 7 13 80 57 293 187 182 176 166 174 169 148 141 139 143 134 161 185 203 211 212
248 230 249 184 209 237 237 248 209 249 239 39 127 173 113 18 183 162 165 157 149 127 131 130 120 121 115 114 155 212 236 293
212 250 249 249 108 77 303 244 168 261 302 296 211 261 74 116 109 91 97 120 133 131 127 123 115 121 120 102 98 72 30 338
229 238 255 108 116 172 221 82 20 353 5 334 306 18 112 130 131 136 139 137 137 134 124 119 128 125 119 112 90 55 17 14
233 237 234 137 140 241 26 50 20 18 25 38 68 96 108 116 128 140 138 136 131 114 95 80 97 122 114 83 69 65 62 61
239 231 93 120 18 53 2 341 5 5 19 97 108 113 121 118 145 144 109 79 69 96 92 81 62 86 98 102 85 89 84 78
250 159 150 119 120 42 18 15 9 357 352 100 99 117 147 157 167 88 100 97 100 104 91 83 67 71 97 101 109 107 100 95
230 119 232 148 51 42 78 82 90 121 131 125 129 141 125 126 139 124 129 141 142 127 122 118 117 112 110 114 120 107 97 94
28 31 326 61 30 38 37 77 117 131 134 153 150 156 164 130 128 147 131 123 113 125 134 134 128 122 112 119 126 122 114 116
344 337 333 7 45 33 23 97 134 151 136 139 140 148 148 151 134 117 146 145 141 137 133 133 132 110 117 119 112 106 106 118